KUIPER-00011

导读

KUIPER-00011是美国亚马逊柯伊伯计划(Project Kuiper)星座中的一颗低轨卫星互联网卫星,于2025年4月28日发射。该项目旨在通过数千颗低轨卫星组网,为全球特别是偏远地区提供高速低延迟的卫星互联网接入服务。作为大规模部署阶段的卫星之一,KUIPER-00011将助力实现FCC要求的2026年前完成半数卫星部署的目标,推动全球宽带覆盖与云网一体化基础设施建设。

Basic Information
目录编号:
63727
目录名称:
KUIPER-00011
国际标识:
2025-088D
轨道中心:
EARTH
卫星名称:
KUIPER-00011
卫星全名:
KUIPER-00011
卫星状态:
在轨 (已飞行495 天)
发射日期:
2025-04-28 UTC
国别 :
美国 (US)
星等 :
--
Orbit Information
数据来源 国际轨道数据 AOE轨道数据
星历时间 2026-09-04T03:25:41+0800
1天前
查看轨道信息
2026-09-03T09:00:00+0800
2天前
查看轨道信息
半长轴 7007.674km 7007.667km
偏心率 0.0000304 0.000036
轨道倾角 51.902° 51.902°
近地点辐角 115.008° 84.198°
升交点赤经 23.015° 26.411°
平近点角 245.091° 142.599°
近地点 629.323km 629.277km
远地点 629.751km 629.783km
周期 97.302分钟 97.302分钟
每日圈数 14.799326 14.799348
Detailed Information
使用方式:
暂无
2D Orbit Map
3D Orbit Map
Orbit Altitude Analysis Chart
Orbit Inclination Analysis Chart
Orbit Comprehensive Analysis Chart
View Comprehensive Chart
Conjunction Data List
Event ID Objects TCA Miss Dist (km) Collision Risk Probability Collision Risk Index (CRI) Action
CDM_260907-165404-071806-372723
2026-09-07T
16:54:24+0000
0.584 km
远距离
1.0161E-4 高风险 0.75